DECAYED

CZ-6A DEB, 64642 (Decayed)

Orbit data source: Space-Track

CZ-6A DEB, 64642 was space debris in LEO originally from a launch on Tue, 06 Aug 2024 UTC launched from the Taiyaun Space Center, China (TSC). Debris objects in space refer to the collection of defunct objects orbiting the Earth. Examples of debris include non-operational satellites, rocket bodies, and fragments generated from explosions, collisions, or faulty payload assembly.

Not visible in the next 10 days
Identifier
64642, 2024-140AEG
Orbit
Decayed
Country
Flag of CNCN / PRC
Related business
Manufacturer
SAST
Mission
Decayed spacecraft
Bus & Motor
Unknown
Mass
Unknown
Launch date (UTC)
2024-08-06 (2 years ago)
Launch vehicle
Unknown
Launch site
Taiyaun Space Center, China (TSC)
Object type
Payload
Rocket body
Debris
Shape & HBR
Unknown shape, 1.1 m
Radar Cross Section
Medium (>0.1 m² and <1 m²)

Expand to show TLE details & history
Last TLE update: 5 months ago

TLE from 5 months ago
0 CZ-6A DEB
1 64642U 24140AEG 26020.21232526  .00912118  00000-0  57342-1 0  9990
2 64642  88.9793 290.5041 0005489 303.6283  56.4431 15.06370621 69335
Epoch: 2026-01-20T05:05Z
TLE epoch observation values (Epoch: 2026-01-20T05:05:44.902Z)
Latitude
0.00001°
Longitude
94.46957°
Altitude
548.377 km
Speed
7.589 km/s
True Right ascension
19h 22m 00s
True Declination
0° 00' 00"
Sunlit
Object was in daylight at epoch
Visualization orbit readout
Latitude
Unknown
Longitude
Unknown
Altitude
Unknown
Speed
Unknown
Apparent Right ascension
Unknown
Apparent Declination
Unknown
Sunlit
N/A
Visualization observer readout
Local Sidereal Time
10:18:31
Azimuth
Unknown
Elevation
Unknown
Doppler factor
Unknown
Orbital elements
Apogee altitude
547.93 km
Perigee altitude
540.331 km
Semi-major axis
6,922.267 km
Eccentricity
0.00055
Inclination
88.9793°
RAAN
290.5041°
Arg. of periapsis
303.6283°
True anomaly
56.49554°
Mean anomaly
56.4431°
Eccentric anomaly
56.46932°
Mean motion
3.76852 °/min
Orbital period
95.53 mins
BSTAR
0.057342
Loading maneuver chart data...
Computing Atmospheric mass density...
Loading historical data...
Loading historical data...
Loading historical data...
Loading historical data...
Loading historical data...
Loading historical data...
Loading historical data...

Documentation

Showing up to 5 results
|